Time,TemperatureF,DewpointF,PressureIn,WindDirection,WindDirectionDegrees,WindSpeedMPH,WindSpeedGustMPH,Humidity,HourlyPrecipIn,Conditions,Clouds,dailyrainin,SoftwareType,DateUTC
2013-05-01 00:01:00,60.0,53.0,29.76,West,261,0.0,0.0,78,0.00,,,-99.99,,2013-05-01 07:01:00,
2013-05-01 00:11:00,60.0,53.0,29.76,West,261,0.0,0.0,78,0.00,,,-99.99,,2013-05-01 07:11:00,
2013-05-01 00:21:00,60.0,53.0,29.76,West,261,0.0,0.0,78,0.00,,,-99.99,,2013-05-01 07:21:00,
2013-05-01 00:32:00,60.0,53.0,29.76,West,261,0.0,0.0,78,0.00,,,-99.99,,2013-05-01 07:32:00,
2013-05-01 00:42:00,60.0,53.0,29.76,West,261,0.0,0.0,78,0.00,,,-99.99,,2013-05-01 07:42:00,
2013-05-01 00:52:00,60.0,53.0,29.76,West,261,0.0,0.0,78,0.00,,,-99.99,,2013-05-01 07:52:00,
2013-05-01 01:01:00,60.0,53.0,29.77,West,261,0.0,0.0,78,0.00,,,-99.99,,2013-05-01 08:01:00,
2013-05-01 01:11:00,60.0,53.0,29.77,West,261,0.0,0.0,78,0.00,,,-99.99,,2013-05-01 08:11:00,
2013-05-01 01:21:00,60.0,53.0,29.77,West,261,0.0,0.0,78,0.00,,,-99.99,,2013-05-01 08:21:00,
2013-05-01 01:31:00,60.0,53.0,29.77,West,261,0.0,0.0,79,0.00,,,-99.99,,2013-05-01 08:31:00,
2013-05-01 01:42:00,60.0,53.0,29.77,West,261,0.0,0.0,79,0.00,,,-99.99,,2013-05-01 08:42:00,
2013-05-01 01:53:00,60.0,53.0,29.77,West,261,0.0,0.0,79,0.00,,,-99.99,,2013-05-01 08:53:00,
2013-05-01 02:01:00,60.0,53.0,29.77,West,261,0.0,0.0,79,0.00,,,-99.99,,2013-05-01 09:01:00,
2013-05-01 02:33:00,60.0,53.0,29.78,West,261,0.0,0.0,78,0.00,,,-99.99,,2013-05-01 09:33:00,
2013-05-01 02:43:00,60.0,53.0,29.78,West,261,0.0,0.0,78,0.00,,,-99.99,,2013-05-01 09:43:00,
2013-05-01 02:53:00,60.0,53.0,29.78,West,261,0.0,0.0,78,0.00,,,-99.99,,2013-05-01 09:53:00,
2013-05-01 03:02:00,60.0,53.0,29.78,West,261,0.0,0.0,79,0.00,,,-99.99,,2013-05-01 10:02:00,
2013-05-01 03:12:00,60.0,53.0,29.78,West,261,0.0,0.0,79,0.00,,,-99.99,,2013-05-01 10:12:00,
2013-05-01 03:22:00,60.0,53.0,29.78,West,261,0.0,0.0,79,0.00,,,-99.99,,2013-05-01 10:22:00,
2013-05-01 03:32:00,60.0,53.0,29.78,West,261,0.0,0.0,78,0.00,,,-99.99,,2013-05-01 10:32:00,
2013-05-01 03:42:00,60.0,53.0,29.78,West,261,0.0,0.0,78,0.00,,,-99.99,,2013-05-01 10:42:00,
2013-05-01 03:52:00,60.0,53.0,29.78,West,261,0.0,0.0,78,0.00,,,-99.99,,2013-05-01 10:52:00,
2013-05-01 04:02:00,60.0,53.0,29.78,West,261,0.0,0.0,77,0.00,,,-99.99,,2013-05-01 11:02:00,
2013-05-01 04:11:00,60.0,53.0,29.78,West,261,0.0,0.0,77,0.00,,,-99.99,,2013-05-01 11:11:00,
2013-05-01 04:22:00,60.0,53.0,29.78,West,261,0.0,0.0,77,0.00,,,-99.99,,2013-05-01 11:22:00,
2013-05-01 04:32:00,60.0,53.0,29.78,West,261,0.0,0.0,77,0.00,,,-99.99,,2013-05-01 11:32:00,
2013-05-01 04:42:00,60.0,53.0,29.78,West,261,0.0,0.0,77,0.00,,,-99.99,,2013-05-01 11:42:00,
2013-05-01 04:52:00,60.0,53.0,29.78,West,261,0.0,0.0,77,0.00,,,-99.99,,2013-05-01 11:52:00,
2013-05-01 05:01:00,60.0,53.0,29.78,West,261,0.0,0.0,78,0.00,,,-99.99,,2013-05-01 12:01:00,
2013-05-01 05:11:00,60.0,53.0,29.78,West,261,0.0,0.0,78,0.00,,,-99.99,,2013-05-01 12:11:00,
2013-05-01 05:21:00,60.0,53.0,29.78,West,261,0.0,0.0,78,0.00,,,-99.99,,2013-05-01 12:21:00,
2013-05-01 05:31:00,60.0,53.0,29.78,West,262,1.0,3.0,77,0.00,,,-99.99,,2013-05-01 12:31:00,
2013-05-01 05:42:00,60.0,53.0,29.78,West,262,1.0,3.0,77,0.00,,,-99.99,,2013-05-01 12:42:00,
2013-05-01 05:52:00,60.0,53.0,29.78,West,262,1.0,3.0,77,0.00,,,-99.99,,2013-05-01 12:52:00,
2013-05-01 06:01:00,60.0,53.0,29.79,WNW,294,1.0,2.0,77,0.00,,,-99.99,,2013-05-01 13:01:00,
2013-05-01 06:11:00,60.0,53.0,29.79,WNW,294,1.0,2.0,77,0.00,,,-99.99,,2013-05-01 13:11:00,
2013-05-01 06:21:00,60.0,53.0,29.79,WNW,294,1.0,2.0,77,0.00,,,-99.99,,2013-05-01 13:21:00,
2013-05-01 06:31:00,60.0,53.0,29.80,WNW,294,0.0,2.0,77,0.00,,,-99.99,,2013-05-01 13:31:00,
2013-05-01 06:42:00,60.0,53.0,29.80,WNW,294,0.0,2.0,77,0.00,,,-99.99,,2013-05-01 13:42:00,
2013-05-01 06:52:00,60.0,53.0,29.80,WNW,294,0.0,2.0,77,0.00,,,-99.99,,2013-05-01 13:52:00,
2013-05-01 07:02:00,60.0,53.0,29.81,WNW,294,0.0,0.0,77,0.00,,,-99.99,,2013-05-01 14:02:00,
2013-05-01 07:11:00,60.0,53.0,29.81,WNW,294,0.0,0.0,77,0.00,,,-99.99,,2013-05-01 14:11:00,
2013-05-01 07:21:00,60.0,53.0,29.81,WNW,294,0.0,0.0,77,0.00,,,-99.99,,2013-05-01 14:21:00,
2013-05-01 07:31:00,60.0,53.0,29.83,WNW,293,1.0,3.0,78,0.00,,,-99.99,,2013-05-01 14:31:00,
2013-05-01 07:42:00,60.0,53.0,29.83,WNW,293,1.0,3.0,78,0.00,,,-99.99,,2013-05-01 14:42:00,
2013-05-01 07:52:00,60.0,53.0,29.83,WNW,293,1.0,3.0,78,0.00,,,-99.99,,2013-05-01 14:52:00,
2013-05-01 08:01:00,60.0,53.0,29.83,WNW,293,0.0,2.0,77,0.00,,,-99.99,,2013-05-01 15:01:00,
2013-05-01 08:11:00,60.0,53.0,29.83,WNW,293,0.0,2.0,77,0.00,,,-99.99,,2013-05-01 15:11:00,
2013-05-01 08:21:00,60.0,53.0,29.83,WNW,293,0.0,2.0,77,0.00,,,-99.99,,2013-05-01 15:21:00,
2013-05-01 08:33:00,61.0,53.0,29.84,West,279,1.0,4.0,75,0.00,,,-99.99,,2013-05-01 15:33:00,
2013-05-01 08:43:00,61.0,53.0,29.84,West,279,1.0,4.0,75,0.00,,,-99.99,,2013-05-01 15:43:00,
2013-05-01 08:53:00,61.0,53.0,29.84,West,279,1.0,4.0,75,0.00,,,-99.99,,2013-05-01 15:53:00,
2013-05-01 09:02:00,62.0,53.0,29.85,West,278,0.0,4.0,72,0.00,,,-99.99,,2013-05-01 16:02:00,
2013-05-01 09:12:00,62.0,53.0,29.85,West,278,0.0,4.0,72,0.00,,,-99.99,,2013-05-01 16:12:00,
2013-05-01 09:22:00,62.0,53.0,29.85,West,278,0.0,4.0,72,0.00,,,-99.99,,2013-05-01 16:22:00,
2013-05-01 09:31:00,64.0,53.0,29.85,NNW,328,1.0,5.0,67,0.00,,,-99.99,,2013-05-01 16:31:00,
2013-05-01 09:42:00,64.0,53.0,29.85,NNW,328,1.0,5.0,67,0.00,,,-99.99,,2013-05-01 16:42:00,
2013-05-01 09:53:00,64.0,53.0,29.85,NNW,328,1.0,5.0,67,0.00,,,-99.99,,2013-05-01 16:53:00,
2013-05-01 10:02:00,67.0,54.0,29.86,SSW,200,1.0,4.0,63,0.00,,,-99.99,,2013-05-01 17:02:00,
2013-05-01 10:12:00,67.0,54.0,29.86,SSW,200,1.0,4.0,63,0.00,,,-99.99,,2013-05-01 17:12:00,
2013-05-01 10:21:00,67.0,54.0,29.86,SSW,200,1.0,4.0,63,0.00,,,-99.99,,2013-05-01 17:21:00,
2013-05-01 10:31:00,67.0,54.0,29.86,ESE,120,1.0,6.0,62,0.00,,,-99.99,,2013-05-01 17:31:00,
2013-05-01 10:42:00,67.0,54.0,29.86,ESE,120,1.0,6.0,62,0.00,,,-99.99,,2013-05-01 17:42:00,
2013-05-01 10:52:00,67.0,54.0,29.86,ESE,120,1.0,6.0,62,0.00,,,-99.99,,2013-05-01 17:52:00,
2013-05-01 11:01:00,67.0,54.0,29.86,ESE,120,1.0,6.0,62,0.00,,,-99.99,,2013-05-01 18:01:00,
2013-05-01 12:32:00,70.0,55.0,29.88,West,265,3.0,11.0,58,0.00,,,-99.99,,2013-05-01 19:32:00,
2013-05-01 12:43:00,70.0,55.0,29.88,West,265,3.0,11.0,58,0.00,,,-99.99,,2013-05-01 19:43:00,
2013-05-01 12:52:00,70.0,55.0,29.88,West,265,3.0,11.0,58,0.00,,,-99.99,,2013-05-01 19:52:00,
2013-05-01 13:01:00,71.0,55.0,29.88,West,275,2.0,10.0,57,0.00,,,-99.99,,2013-05-01 20:01:00,
2013-05-01 13:11:00,71.0,55.0,29.88,West,275,2.0,10.0,57,0.00,,,-99.99,,2013-05-01 20:11:00,
2013-05-01 13:21:00,71.0,55.0,29.88,West,275,2.0,10.0,57,0.00,,,-99.99,,2013-05-01 20:21:00,
2013-05-01 13:31:00,71.0,55.0,29.88,SW,229,2.0,12.0,58,0.00,,,-99.99,,2013-05-01 20:31:00,
2013-05-01 13:42:00,71.0,55.0,29.88,SW,229,2.0,12.0,58,0.00,,,-99.99,,2013-05-01 20:42:00,
2013-05-01 13:52:00,71.0,55.0,29.88,SW,229,2.0,12.0,58,0.00,,,-99.99,,2013-05-01 20:52:00,
2013-05-01 14:01:00,72.0,55.0,29.88,SW,236,2.0,9.0,56,0.00,,,-99.99,,2013-05-01 21:01:00,
2013-05-01 14:11:00,72.0,55.0,29.88,SW,236,2.0,9.0,56,0.00,,,-99.99,,2013-05-01 21:11:00,
2013-05-01 14:21:00,72.0,55.0,29.88,SW,236,2.0,9.0,56,0.00,,,-99.99,,2013-05-01 21:21:00,
2013-05-01 14:32:00,72.0,55.0,29.87,South,189,2.0,11.0,55,0.00,,,-99.99,,2013-05-01 21:32:00,
2013-05-01 14:43:00,72.0,55.0,29.87,South,189,2.0,11.0,55,0.00,,,-99.99,,2013-05-01 21:43:00,
2013-05-01 14:53:00,72.0,55.0,29.87,South,189,2.0,11.0,55,0.00,,,-99.99,,2013-05-01 21:53:00,
2013-05-01 15:03:00,72.0,55.0,29.87,South,189,2.0,11.0,55,0.00,,,-99.99,,2013-05-01 22:03:00,
2013-05-01 15:33:00,73.0,55.0,29.87,South,171,2.0,7.0,53,0.00,,,-99.99,,2013-05-01 22:33:00,
2013-05-01 15:42:00,73.0,55.0,29.87,South,171,2.0,7.0,53,0.00,,,-99.99,,2013-05-01 22:42:00,
2013-05-01 15:53:00,73.0,55.0,29.87,South,171,2.0,7.0,53,0.00,,,-99.99,,2013-05-01 22:53:00,
2013-05-01 16:01:00,73.0,55.0,29.87,South,171,2.0,7.0,53,0.00,,,-99.99,,2013-05-01 23:01:00,
2013-05-01 16:32:00,72.0,53.0,29.87,South,177,1.0,5.0,52,0.00,,,-99.99,,2013-05-01 23:32:00,
2013-05-01 16:42:00,72.0,53.0,29.87,South,177,1.0,5.0,52,0.00,,,-99.99,,2013-05-01 23:42:00,
2013-05-01 16:52:00,72.0,53.0,29.87,South,177,1.0,5.0,52,0.00,,,-99.99,,2013-05-01 23:52:00,
2013-05-01 17:01:00,72.0,53.0,29.87,South,177,1.0,5.0,52,0.00,,,-99.99,,2013-05-02 00:01:00,
2013-05-01 18:01:00,72.0,53.0,29.86,SE,131,0.0,5.0,51,0.00,,,-99.99,,2013-05-02 01:01:00,
2013-05-01 18:11:00,72.0,53.0,29.86,SE,131,0.0,5.0,51,0.00,,,-99.99,,2013-05-02 01:11:00,
2013-05-01 18:21:00,72.0,53.0,29.86,SE,131,0.0,5.0,51,0.00,,,-99.99,,2013-05-02 01:21:00,
2013-05-01 18:32:00,72.0,53.0,29.86,WSW,248,2.0,8.0,51,0.00,,,-99.99,,2013-05-02 01:32:00,
2013-05-01 18:42:00,72.0,53.0,29.86,WSW,248,2.0,8.0,51,0.00,,,-99.99,,2013-05-02 01:42:00,
2013-05-01 18:52:00,72.0,53.0,29.86,WSW,248,2.0,8.0,51,0.00,,,-99.99,,2013-05-02 01:52:00,
2013-05-01 19:01:00,70.0,52.0,29.86,West,273,1.0,7.0,53,0.00,,,-99.99,,2013-05-02 02:01:00,
2013-05-01 19:11:00,70.0,52.0,29.86,West,273,1.0,7.0,53,0.00,,,-99.99,,2013-05-02 02:11:00,
2013-05-01 19:21:00,70.0,52.0,29.86,West,273,1.0,7.0,53,0.00,,,-99.99,,2013-05-02 02:21:00,
2013-05-01 19:31:00,69.0,53.0,29.86,West,259,0.0,2.0,57,0.00,,,-99.99,,2013-05-02 02:31:00,
2013-05-01 19:42:00,69.0,53.0,29.86,West,259,0.0,2.0,57,0.00,,,-99.99,,2013-05-02 02:42:00,
2013-05-01 19:51:00,69.0,53.0,29.86,West,259,0.0,2.0,57,0.00,,,-99.99,,2013-05-02 02:51:00,
2013-05-01 20:01:00,66.0,53.0,29.87,West,261,0.0,2.0,64,0.00,,,-99.99,,2013-05-02 03:01:00,
2013-05-01 20:11:00,66.0,53.0,29.87,West,261,0.0,2.0,64,0.00,,,-99.99,,2013-05-02 03:11:00,
2013-05-01 20:22:00,66.0,53.0,29.87,West,261,0.0,2.0,64,0.00,,,-99.99,,2013-05-02 03:22:00,
2013-05-01 20:32:00,63.0,52.0,29.89,WSW,258,0.0,1.0,68,0.00,,,-99.99,,2013-05-02 03:32:00,
2013-05-01 20:43:00,63.0,52.0,29.89,WSW,258,0.0,1.0,68,0.00,,,-99.99,,2013-05-02 03:43:00,
2013-05-01 20:53:00,63.0,52.0,29.89,WSW,258,0.0,1.0,68,0.00,,,-99.99,,2013-05-02 03:53:00,
2013-05-01 21:02:00,61.0,52.0,29.90,WSW,258,0.0,1.0,73,0.00,,,-99.99,,2013-05-02 04:02:00,
2013-05-01 21:12:00,61.0,52.0,29.90,WSW,258,0.0,1.0,73,0.00,,,-99.99,,2013-05-02 04:12:00,
2013-05-01 21:22:00,61.0,52.0,29.90,WSW,258,0.0,1.0,73,0.00,,,-99.99,,2013-05-02 04:22:00,
2013-05-01 21:33:00,60.0,52.0,29.91,WSW,258,0.0,1.0,75,0.00,,,-99.99,,2013-05-02 04:33:00,
2013-05-01 21:43:00,60.0,52.0,29.91,WSW,258,0.0,1.0,75,0.00,,,-99.99,,2013-05-02 04:43:00,
2013-05-01 21:52:00,60.0,52.0,29.91,WSW,258,0.0,1.0,75,0.00,,,-99.99,,2013-05-02 04:52:00,
2013-05-01 22:02:00,59.0,52.0,29.93,WSW,258,0.0,1.0,79,0.00,,,-99.99,,2013-05-02 05:02:00,
2013-05-01 22:12:00,59.0,52.0,29.93,WSW,258,0.0,1.0,79,0.00,,,-99.99,,2013-05-02 05:12:00,
2013-05-01 22:22:00,59.0,52.0,29.93,WSW,258,0.0,1.0,79,0.00,,,-99.99,,2013-05-02 05:22:00,
2013-05-01 22:32:00,59.0,53.0,29.94,WSW,258,0.0,0.0,81,0.00,,,-99.99,,2013-05-02 05:32:00,
2013-05-01 22:42:00,59.0,53.0,29.94,WSW,258,0.0,0.0,81,0.00,,,-99.99,,2013-05-02 05:42:00,
2013-05-01 22:52:00,59.0,53.0,29.94,WSW,258,0.0,0.0,81,0.00,,,-99.99,,2013-05-02 05:52:00,
2013-05-01 23:01:00,58.0,52.0,29.95,WSW,258,0.0,0.0,81,0.00,,,-99.99,,2013-05-02 06:01:00,
2013-05-01 23:12:00,58.0,52.0,29.95,WSW,258,0.0,0.0,81,0.00,,,-99.99,,2013-05-02 06:12:00,
2013-05-01 23:21:00,58.0,52.0,29.95,WSW,258,0.0,0.0,81,0.00,,,-99.99,,2013-05-02 06:21:00,
2013-05-01 23:31:00,58.0,52.0,29.96,WSW,258,0.0,0.0,80,0.00,,,-99.99,,2013-05-02 06:31:00,
2013-05-01 23:42:00,58.0,52.0,29.96,WSW,258,0.0,0.0,80,0.00,,,-99.99,,2013-05-02 06:42:00,
2013-05-01 23:52:00,58.0,52.0,29.96,WSW,258,0.0,0.0,80,0.00,,,-99.99,,2013-05-02 06:52:00,